Location: Cuguron
(43.0994°N, 0.5363°E)
Time: 11:10:19
(UTC+00:00)

Cosmos 1302 Rocket - Pass Details

Date: 15 May 2026
Orbit: 752 x 772 km, 74.0° (Epoch: 6 June)

Event Time Altitude Azimuth Distance (km) Brightness Sun altitude
Rises 20:08:19 0° 204° (SSW) 3,187 7.1 -9.1°
Reaches altitude 10° 20:10:41 10° 206° (SSW) 2,267 6.3 -9.5°
Maximum altitude 20:15:48 72° 291° (WNW) 793 4.3 -10.2°
Drops below altitude 10° 20:21:00 10° 17° (NNE) 2,291 6.8 -10.9°
Sets 20:23:23 0° 19° (NNE) 3,223 7.5 -11.3°
